Retour au catalogue

FENGYUN 1C DEB

ActifSSO
NORAD 36734·DEBRIS·🇨🇳 China

Lancé May 10, 1999 depuis Taiyuan Satellite Launch Center

Loading…

Prochains Passages (prochaines 24 heures)

TLE

FraisSource: Space-Track

Époque: Sep 13, 2026, 21:41 UTC

1 36734U 99025EBG 26256.90410086  .00002139  00000-0  88160-3 0  9998
2 36734  99.0396 318.0427 0035825 147.8550 212.4824 14.27622328866582

Suivez FENGYUN 1C DEB en temps réel avec AllMySat

Download on the App Store